Location: Poughquag
(41.6090°N, 73.6820°W)
Time: 10:39:13
(UTC-04:00)

ISS - Visible Passes

Search period start: 20 July 2019 00:00
Search period end: 30 July 2019 00:00
Orbit: 409 x 418 km, 51.6° (Epoch: 20 July)

Date Brightness Start Highest point End Pass type
(mag) Time Alt. Az. Time Alt. Az. Time Alt. Az.
20 Jul -0.5 00:05:47 10° NW 00:07:45 15° N 00:09:42 10° NE visible
20 Jul -1.3 01:42:38 10° NW 01:45:20 22° NNE 01:46:02 21° NE visible
20 Jul-0.803:26:33SE03:26:33SE03:18:35WNWvisible
20 Jul -2.0 21:37:38 10° W 21:40:46 36° NNW 21:43:53 10° NE visible
20 Jul -0.6 23:16:04 10° NW 23:18:09 15° N 23:20:15 10° NNE visible
21 Jul -1.0 00:53:25 10° NNW 00:55:49 18° NNE 00:56:14 18° NNE visible
21 Jul -0.8 22:26:14 10° WNW 22:28:35 17° NNW 22:30:56 10° NNE visible
22 Jul -0.8 00:04:06 10° NNW 00:06:15 16° N 00:07:44 12° NE visible
22 Jul -0.6 01:40:27 10° NW 01:40:31 10° NW 01:40:31 10° NW visible
22 Jul -1.1 21:36:24 10° WNW 21:39:03 21° NNW 21:41:42 10° NE visible
22 Jul -0.7 23:14:40 10° NW 23:16:38 15° N 23:18:37 10° NE visible
23 Jul -0.9 00:51:15 10° NW 00:52:20 17° NNW 00:52:20 17° NNW visible
23 Jul -0.8 22:25:02 10° NW 22:27:01 15° N 22:29:01 10° NNE visible
24 Jul -1.2 00:02:00 10° NW 00:04:19 21° N 00:04:19 21° N visible
24 Jul -0.8 21:35:14 10° NW 21:37:24 16° N 21:39:34 10° NNE visible
24 Jul -1.1 23:12:44 10° NNW 23:15:03 17° NNE 23:16:20 14° NE visible
25 Jul -0.5 00:49:01 10° NW 00:49:09 11° NW 00:49:09 11° NW visible
25 Jul -0.9 22:23:21 10° NNW 22:25:26 15° N 22:27:31 10° NE visible
25 Jul -1.2 23:59:44 10° NW 00:01:14 22° NNW 00:01:14 22° NNW visible
26 Jul -0.9 21:33:49 10° NW 21:35:47 15° N 21:37:46 10° NE visible
26 Jul -1.8 23:10:29 10° NW 23:13:20 25° NNE 23:13:21 25° NNE visible
27 Jul -1.0 20:44:05 10° NW 20:46:08 15° N 20:48:09 10° NNE visible
27 Jul -1.4 22:21:12 10° NNW 22:23:45 20° NNE 22:25:30 14° NE visible
27 Jul -1.0 23:57:30 10° NW 23:58:19 16° NW 23:58:19 16° NW visible
28 Jul -1.2 21:31:52 10° NNW 21:34:07 17° N 21:36:22 10° NE visible
28 Jul -2.2 23:08:09 10° NW 23:10:29 36° NNW 23:10:29 36° NNW visible
29 Jul -2.4 22:18:51 10° NW 22:21:53 31° NNE 22:22:41 28° NE visible
